Showing default

IRIDIUM 133, 42955

Orbit data source: Space-Track

IRIDIUM 133, 42955 is a payload satellite owned by Iridium (US) in LEO that was launched on Mon, 09 Oct 2017 UTC via an FALCON 9 launch vehicle from the Air Force Western Test Range (AFWTR). Payload-class satellites include a variety of spacecraft equipped with specific instruments for various scientific and technological missions. These include communications satellites like Starlink; space stations such as the ISS; scientific satellites like the Hubble; Earth observation satellites from companies like Planet Labs, Umbra, and HawkEye 360; GPS; miniature CubeSats for education and research; and military/defense satellites.

Loading next visibility...
Identifier
42955, 2017-061A
Orbit
LEO
Country
Flag of USUS
Related business
Manufacturer
OATK SSG Gilbert
Mission
Operational Commercial Communications
Bus & Motor
ELITEBUS, Unknown motor
Mass
860 kg wet, 700 kg dry
Launch date (UTC)
2017-10-09 (8 years ago)
Launch vehicle
FALCON 9
Launch site
Air Force Western Test Range (AFWTR)
Object type
Payload
Rocket body
Debris
Shape & HBR
Trap Box + 2 Pan, 4.8 m
Radar Cross Section
10.154 m², Large (>1 m²)

Expand to show TLE details & history
Last TLE update: 15 hours ago

TLE from 15 hours ago
0 IRIDIUM 133
1 42955U 17061A   26036.02952252  .00000222  00000-0  72042-4 0  9999
2 42955  86.3922  80.5335 0002215  91.5425 268.6025 14.34217705435833
Epoch: 2026-02-05T00:42Z
TLE epoch observation values (Epoch: 2026-02-05T00:42:30.745Z)
Latitude
0.00001°
Longitude
-65.28222°
Altitude
780.757 km
Speed
7.463 km/s
True Right ascension
05h 22m 08s
True Declination
0° 00' 00"
Sunlit
Object was in full shadow at epoch
Visualization orbit readout
Latitude
Unknown
Longitude
Unknown
Altitude
Unknown
Speed
Unknown
Apparent Right ascension
Unknown
Apparent Declination
Unknown
Sunlit
N/A
Visualization observer readout
Local Sidereal Time
17:22:11
Azimuth
Unknown
Elevation
Unknown
Doppler factor
Unknown
Orbital elements
Apogee altitude
776.216 km
Perigee altitude
773.048 km
Semi-major axis
7,152.769 km
Eccentricity
0.00022
Inclination
86.3922°
RAAN
80.5335°
Arg. of periapsis
91.5425°
True anomaly
268.57713°
Mean anomaly
268.6025°
Eccentric anomaly
268.58981°
Mean motion
3.58783 °/min
Orbital period
100.34 mins
BSTAR
0.000072042
Loading maneuver chart data...
Computing Atmospheric mass density...
Loading historical data...
Loading historical data...
Loading historical data...
Loading historical data...
Loading historical data...
Loading historical data...
Loading historical data...

Documentation

Showing up to 5 results
|